Terminal Aerodrome Forecast
Issued by NWS

Home | Current Version | Previous Version | Graphics & Text | Print | Product List | Glossary On
Versions: 1 2 3 4 5 6 7 8 9 10 11 12 13 14 15 16
000
FTUS43 KFGF 200822 AAA
TAFBJI
TAF AMD
KBJI 200822Z 2008/2106 18005KT 3SM BR OVC002
      TEMPO 2008/2011 1SM BR
     FM201600 13005KT 1/2SM FG OVC002
     FM201800 14006KT P6SM OVC003=

USA.gov is the U.S. government's official web portal to all federal, state and local government web resources and services.